Regional Weather Roundup
Issued by NWS Little Rock, AR

Home | Current Version | Previous Version | Graphics & Text | Print | Product List | Glossary On
Versions: 1 2 3 4 5 6 7 8 9 10 11 12 13 14 15 16 17 18 19 20 21 22 23 24 25 26 27 28 29 30 31 32 33 34 35 36 37 38 39 40 41 42 43 44 45 46 47 48 49 50
000
ASUS44 KLZK 201405
RWRLZK

WEATHER ROUNDUP FOR ARKANSAS
NATIONAL WEATHER SERVICE LITTLE ROCK AR
900 AM CDT MON OCT 20 2014

NOTE: "FAIR" INDICATES FEW OR NO CLOUDS BELOW 12,000 FEET WITH NO
SIGNIFICANT WEATHER AND/OR OBSTRUCTIONS TO VISIBILITY.

ARZ001-003-010-029-201500-
NORTHWEST ARKANSAS

CITY           SKY/WX    TMP DP  RH WIND       PRES   REMARKS
FAYETTEVILLE   CLOUDY    56  54  93 CALM      30.11R
FORT SMITH     PTSUNNY   57  53  86 NE3       30.10R
HARRISON       CLOUDY    59  53  80 W8        30.08R
BENTONVILLE    CLOUDY    57  52  82 SW5       30.10R
ROGERS         CLOUDY    58  53  84 SW6       30.10R
SILOAM SPGS    CLOUDY    55  48  76 S6        30.11R
HIGHFILL       CLOUDY    55  54  96 SW3       30.10R
SPRINGDALE     CLOUDY    57  54  88 SW5       30.12R
$$

ARZ004-005-016-201500-
NORTH CENTRAL ARKANSAS

CITY           SKY/WX    TMP DP  RH WIND       PRES   REMARKS
BATESVILLE     CLOUDY    55  48  76 CALM      30.09R
FLIPPIN        MOSUNNY   54  48  82 CALM      30.08R
MTN HOME       CLOUDY    56  51  84 SW3       30.07R
$$

ARZ040-041-201500-
WEST CENTRAL ARKANSAS

CITY           SKY/WX    TMP DP  RH WIND       PRES   REMARKS
MENA           SUNNY     59  54  82 CALM      30.12R
MOUNT IDA      MOSUNNY   53  51  93 CALM      30.09R
$$

ARZ009-017-025-026-028-201500-
NORTHEAST ARKANSAS

CITY           SKY/WX    TMP DP  RH WIND       PRES   REMARKS
CORNING        FAIR      55  50  82 SW5       30.08R
JONESBORO      PTSUNNY   57  50  77 SW7       30.08S
NEWPORT        PTSUNNY   55  51  86 S7        30.11R
WALNUT RIDGE   CLOUDY    54  39  58 S6        30.08S
BLYTHEVILLE    PTSUNNY   56  52  86 SW6       30.09R
NW BLYTHEVILLE PTSUNNY   55  50  82 SW8       30.08S
$$

ARZ022-023-033-042-044-201500-
CENTRAL ARKANSAS

CITY           SKY/WX    TMP DP  RH WIND       PRES   REMARKS
LITTLE ROCK    PTSUNNY   55  50  83 S5        30.12R
N LITTLE ROCK  PTSUNNY   58  52  81 SW3       30.12R
JACKSONVILLE   PTSUNNY   55  50  85 NW1       30.10S
SEARCY         CLOUDY    53  49  86 S3        30.12R
HOT SPRINGS    MOSUNNY   52  50  93 CALM      30.12R
RUSSELLVILLE   CLOUDY    55  51  86 CALM      30.11R
$$

ARZ036-201500-
EAST ARKANSAS

CITY           SKY/WX    TMP DP  RH WIND       PRES   REMARKS
WEST MEMPHIS   MOSUNNY   55  54  96 CALM      30.10R
$$

ARZ050-053-066-070-073-201500-
SOUTHWEST ARKANSAS

CITY           SKY/WX    TMP DP  RH WIND       PRES   REMARKS
ARKADELPHIA    FAIR      54  52  93 CALM      30.13R
CAMDEN         SUNNY     50  48  93 CALM      30.13R
TEXARKANA      SUNNY     56  53  90 CALM      30.12R
EL DORADO      SUNNY     54  52  93 CALM      30.12R
DE QUEEN       SUNNY     54  52  93 CALM      30.11R
$$

ARZ056-057-069-201500-
SOUTHEAST ARKANSAS

CITY           SKY/WX    TMP DP  RH WIND       PRES   REMARKS
PINE BLUFF     SUNNY     54  49  83 CALM      30.12R
STUTTGART      SUNNY     57  52  82 W5        30.13R
MONTICELLO     LGT RAIN  57  51  80 CALM      30.11R

$$





USA.gov is the U.S. government's official web portal to all federal, state and local government web resources and services.